Weather History for Jamestown, ND

Change the Weather History Date:

Monday, February 18, 2013

  Actual Average Record
Temperature  
Mean Temperature 14 °F 16 °F  
Max Temperature 34 °F 26 °F 54 °F (1954)
Min Temperature -6 °F 7 °F -31 °F (1910)
Degree Days  
Heating Degree Days 51 49  
Month to date heating degree days 865 929  
Since 1 July heating degree days 6192 6291  
Cooling Degree Days 0 0  
Month to date cooling degree days 0 0  
Year to date cooling degree days 0 0  
Moisture  
Dew Point 4 °F    
Average Humidity 79    
Maximum Humidity 92    
Minimum Humidity 66    
Precipitation  
Precipitation 0.01 in 0.01 in 0.31 in (1998)
Month to date precipitation 0.31 0.21  
Year to date precipitation 0.49 0.66  
Sea Level Pressure  
Sea Level Pressure 29.89 in    
Wind  
Wind Speed 28 mph (NNW)    
Max Wind Speed 33 mph    
Max Gust Speed 46 mph    
Visibility 3 miles    
Events Fog , Rain , Snow    
T = Trace of Precipitation, MM = Missing Value Source: NWS Daily Summary

Daily Weather History Graph

Daily Weather History Graph

Search for Another Location

Airport:

Trip Planner

Search our weather history database for the weather conditions in past years. The results will help you decide how hot, cold, wet, or windy it might be!

Date:

Astronomy

Feb. 18, 2013 Rise Set
Actual Time 7:33 AM CST 6:04 PM CST
Civil Twilight 7:02 AM CST 6:35 PM CST
Nautical Twilight 6:27 AM CST 7:10 PM CST
Astronomical Twilight 5:51 AM CST 7:46 PM CST
Moon 11:40 AM CST (2/18) 2:25 AM CST (2/18)
Length of Visible Light 11h 32m
Length of Day
10h 30m
First Quarter, 58% of the Moon is Illuminated
Feb 18
First Quarter
Feb 25
Full
Mar 4
Last Quarter
Mar 11
New
Mar 19
First Quarter

Hourly Weather History & Observations

Time (CST) Temp. Windchill Dew Point Humidity Pressure Visibility Wind Dir Wind Speed Gust Speed Precip Events Conditions
12:13 AM 33.8 °F 25.8 °F 32.0 °F 93% 29.46 in 5.0 mi West 10.4 mph - 0.00 in Rain Light Rain
12:56 AM 34.0 °F 25.0 °F 32.0 °F 92% 29.52 in 3.0 mi West 12.7 mph - 0.00 in Snow Light Snow
1:13 AM 28.4 °F 12.7 °F 26.6 °F 93% 29.49 in 3.0 mi NNW 29.9 mph 35.7 mph 0.00 in Snow Light Snow
1:20 AM 26.6 °F 10.0 °F 24.8 °F 93% 29.50 in 1.5 mi NNW 31.1 mph - 0.00 in Snow Light Snow
1:30 AM 26.6 °F 10.6 °F 23.0 °F 86% 29.51 in 0.8 mi NNW 28.8 mph - 0.00 in Snow Light Snow
1:56 AM 24.1 °F 7.4 °F 21.9 °F 91% 29.59 in 0.8 mi NNW 27.6 mph - 0.00 in Snow Light Snow
2:03 AM 24.8 °F 8.7 °F 21.2 °F 86% 29.54 in 1.2 mi NNW 26.5 mph 33.4 mph 0.00 in Snow Light Snow
2:25 AM 23.0 °F 6.0 °F 19.4 °F 86% 29.56 in 2.0 mi NNW 27.6 mph 36.8 mph 0.00 in Snow Blowing Snow
2:35 AM 21.2 °F 3.3 °F 19.4 °F 93% 29.57 in 1.8 mi NNW 28.8 mph - 0.00 in Snow Light Snow
2:44 AM 21.2 °F 3.3 °F 17.6 °F 86% 29.58 in 2.0 mi NNW 28.8 mph 36.8 mph 0.00 in Snow Blowing Snow
2:56 AM 21.0 °F 2.2 °F 17.1 °F 85% 29.65 in 2.5 mi NNW 32.2 mph 35.7 mph 0.00 in Snow Light Snow
3:13 AM 19.4 °F 1.1 °F 15.8 °F 86% 29.60 in 1.8 mi NNW 27.6 mph 33.4 mph 0.00 in Snow Light Snow
3:56 AM 19.9 °F 3.5 °F 16.0 °F 85% 29.70 in 1.2 mi NW 21.9 mph - 0.00 in Snow Light Snow
4:08 AM 19.4 °F 2.8 °F 15.8 °F 86% 29.64 in 0.8 mi NNW 21.9 mph 32.2 mph 0.00 in Snow Light Snow
4:17 AM 19.4 °F 1.1 °F 15.8 °F 86% 29.64 in 1.2 mi NNW 27.6 mph 32.2 mph 0.00 in Snow Light Snow
4:56 AM 18.0 °F -0.5 °F 15.1 °F 88% 29.73 in 0.8 mi NNW 26.5 mph 34.5 mph 0.00 in Snow Light Snow
5:56 AM 14.0 °F -6.5 °F 10.9 °F 88% 29.77 in 0.5 mi NNW 28.8 mph 38.0 mph 0.01 in Fog , Snow Light Snow
6:13 AM 14.0 °F -7.1 °F 10.4 °F 86% 29.70 in 0.5 mi NNW 31.1 mph 40.3 mph 0.00 in Fog , Snow Light Snow
6:44 AM 12.2 °F -8.9 °F 6.8 °F 79% 29.72 in 1.0 mi NNW 28.8 mph 38.0 mph 0.00 in Snow Light Snow
6:56 AM 10.9 °F -9.9 °F 7.0 °F 84% 29.82 in 1.8 mi NNW 26.5 mph 34.5 mph 0.00 in Snow Light Snow
7:42 AM 8.6 °F -15.1 °F 3.2 °F 79% 29.76 in 0.5 mi NNW 33.4 mph 40.3 mph 0.00 in Snow Snow
7:54 AM 8.6 °F -13.8 °F 3.2 °F 79% 29.77 in 1.0 mi NNW 28.8 mph 40.3 mph 0.00 in Snow Blowing Snow
7:56 AM 8.1 °F -13.8 °F 3.0 °F 80% 29.86 in 1.0 mi NNW 26.5 mph 40.3 mph 0.00 in Snow Blowing Snow
8:08 AM 8.6 °F -14.5 °F 3.2 °F 79% 29.79 in 0.5 mi NNW 31.1 mph 39.1 mph 0.00 in Snow Snow
8:21 AM 6.8 °F -15.1 °F 1.4 °F 79% 29.79 in 2.0 mi NNW 25.3 mph 38.0 mph 0.00 in Snow Blowing Snow
8:29 AM 8.6 °F -13.8 °F 1.4 °F 73% 29.80 in 5.0 mi NNW 28.8 mph 36.8 mph 0.00 in Snow Blowing Snow
8:44 AM 8.6 °F -13.8 °F 1.4 °F 73% 29.80 in 8.0 mi NNW 28.8 mph 40.3 mph 0.00 in   Mostly Cloudy
8:51 AM 8.6 °F -14.8 °F 1.4 °F 73% 29.80 in 2.5 mi NNW 32.2 mph 39.1 mph 0.00 in Snow Blowing Snow
8:56 AM 8.1 °F -14.9 °F 1.9 °F 76% 29.89 in 2.5 mi NNW 29.9 mph 40.3 mph 0.00 in Snow Blowing Snow
9:19 AM 8.6 °F -13.8 °F 1.4 °F 73% 29.82 in 1.2 mi NNW 28.8 mph 41.4 mph N/A Snow Blowing Snow
9:26 AM 8.6 °F -11.9 °F 1.4 °F 73% 29.83 in 1.5 mi NNW 23.0 mph 38.0 mph 0.00 in Snow Light Snow
9:45 AM 8.6 °F -13.4 °F 3.2 °F 79% 29.83 in 3.0 mi NNW 27.6 mph 38.0 mph 0.00 in Snow Blowing Snow
9:56 AM 10.0 °F -11.1 °F 3.9 °F 76% 29.91 in 3.0 mi NNW 26.5 mph 32.2 mph 0.00 in Snow Blowing Snow
10:04 AM 10.4 °F -13.2 °F 3.2 °F 73% 29.83 in 1.8 mi NNW 35.7 mph 41.4 mph N/A Snow Blowing Snow
10:19 AM 10.4 °F -11.4 °F 3.2 °F 73% 29.84 in 1.0 mi NNW 28.8 mph 40.3 mph N/A Snow Blowing Snow
10:26 AM 10.4 °F -10.3 °F 3.2 °F 73% 29.85 in 2.0 mi NNW 25.3 mph 35.7 mph N/A Snow Blowing Snow
10:30 AM 10.4 °F -12.7 °F 3.2 °F 73% 29.85 in 0.8 mi NNW 33.4 mph 43.7 mph 0.00 in Snow Light Snow
10:49 AM 8.6 °F -14.8 °F 3.2 °F 79% 29.87 in 2.0 mi NNW 32.2 mph 41.4 mph 0.00 in Snow Blowing Snow
10:56 AM 10.0 °F -12.5 °F 3.0 °F 73% 29.94 in 4.0 mi NNW 31.1 mph 41.4 mph 0.00 in Snow Blowing Snow
11:04 AM 10.4 °F -12.3 °F 3.2 °F 73% 29.87 in 1.8 mi NNW 32.2 mph 46.0 mph N/A Snow Blowing Snow
11:16 AM 8.6 °F -14.8 °F 3.2 °F 79% 29.88 in 2.0 mi NNW 32.2 mph 41.4 mph N/A Snow Blowing Snow
11:26 AM 8.6 °F -14.5 °F 3.2 °F 79% 29.88 in 1.8 mi NNW 31.1 mph 38.0 mph N/A Snow Blowing Snow
11:54 AM 10.4 °F -13.0 °F 3.2 °F 73% 29.89 in 0.5 mi NNW 34.5 mph 41.4 mph 0.00 in Snow Snow
11:56 AM 10.0 °F -13.1 °F 1.9 °F 70% 29.96 in 0.8 mi NNW 33.4 mph 41.4 mph 0.00 in Snow Light Snow
12:01 PM 10.4 °F -12.0 °F 3.2 °F 73% 29.89 in 2.0 mi NNW 31.1 mph 41.4 mph 0.00 in Snow Blowing Snow
12:12 PM 10.4 °F -13.0 °F 1.4 °F 67% 29.90 in 4.0 mi NNW 34.5 mph 42.6 mph 0.00 in Snow Blowing Snow
12:17 PM 10.4 °F -11.4 °F 3.2 °F 73% 29.91 in 2.0 mi NNW 28.8 mph 42.6 mph 0.00 in Snow Blowing Snow
12:21 PM 10.4 °F -12.3 °F 3.2 °F 73% 29.91 in 1.2 mi NNW 32.2 mph 42.6 mph 0.00 in Snow Light Snow
12:35 PM 8.6 °F -14.8 °F 1.4 °F 73% 29.91 in 3.0 mi NNW 32.2 mph 38.0 mph 0.00 in Snow Blowing Snow
12:56 PM 9.0 °F -14.6 °F 1.0 °F 70% 29.98 in 3.0 mi NNW 33.4 mph 42.6 mph 0.00 in Snow Blowing Snow
1:04 PM 10.4 °F -12.7 °F 1.4 °F 67% 29.91 in 6.0 mi NNW 33.4 mph 42.6 mph N/A Snow Blowing Snow
1:29 PM 8.6 °F -15.4 °F 3.2 °F 79% 29.91 in 1.8 mi NNW 34.5 mph 40.3 mph N/A Snow Blowing Snow
1:56 PM 9.0 °F -13.3 °F 1.9 °F 73% 30.00 in 1.5 mi NNW 28.8 mph 40.3 mph N/A Snow Blowing Snow
2:30 PM 8.6 °F -14.1 °F 1.4 °F 73% 29.92 in 1.5 mi NNW 29.9 mph 38.0 mph 0.00 in Snow Blowing Snow
2:36 PM 8.6 °F -13.8 °F 1.4 °F 73% 29.93 in 2.5 mi NNW 28.8 mph 38.0 mph 0.00 in Snow Blowing Snow
2:44 PM 8.6 °F -12.3 °F 1.4 °F 73% 29.93 in 3.0 mi NNW 24.2 mph 35.7 mph 0.00 in Snow Blowing Snow
2:56 PM 7.0 °F -17.0 °F -0.0 °F 73% 30.03 in 4.0 mi NNW 32.2 mph - 0.00 in   Haze
3:12 PM 8.6 °F -15.7 °F -0.4 °F 67% 29.94 in 1.8 mi NNW 35.7 mph 41.4 mph N/A Snow Blowing Snow
3:33 PM 6.8 °F -17.6 °F -0.4 °F 72% 29.94 in 2.0 mi NNW 33.4 mph 42.6 mph N/A Snow Blowing Snow
3:56 PM 7.0 °F -17.0 °F -2.0 °F 67% 30.05 in 4.0 mi NNW 32.2 mph 40.3 mph N/A Snow Blowing Snow
5:09 PM 6.8 °F -14.3 °F -0.4 °F 72% 30.00 in 1.8 mi NNW 23.0 mph 29.9 mph 0.00 in Snow Light Snow
5:37 PM 6.8 °F -15.9 °F -0.4 °F 72% 30.01 in 3.0 mi NNW 27.6 mph 36.8 mph 0.00 in   Overcast
5:43 PM 6.8 °F -15.9 °F -0.4 °F 72% 30.02 in 1.5 mi NNW 27.6 mph 35.7 mph 0.00 in Snow Light Snow
5:53 PM 5.0 °F -18.7 °F -0.4 °F 78% 30.02 in 0.5 mi NNW 28.8 mph 38.0 mph 0.00 in Snow Snow
5:56 PM 5.0 °F -19.0 °F -0.9 °F 76% 30.13 in 0.5 mi NNW 29.9 mph 38.0 mph 0.00 in Snow Snow
6:11 PM 5.0 °F -18.7 °F -0.4 °F 78% 30.03 in 1.5 mi NNW 28.8 mph - 0.00 in Snow Light Snow
6:31 PM 5.0 °F -18.7 °F -0.4 °F 78% 30.03 in 4.0 mi NNW 28.8 mph 34.5 mph 0.00 in   Overcast
6:56 PM 5.0 °F -18.7 °F -0.9 °F 76% 30.15 in 2.5 mi NNW 28.8 mph 36.8 mph 0.00 in   Overcast
7:04 PM 5.0 °F -17.5 °F -0.4 °F 78% 30.05 in 4.0 mi NNW 25.3 mph 39.1 mph 0.00 in Snow Blowing Snow
7:56 PM 5.0 °F -16.7 °F -0.9 °F 76% 30.18 in 4.0 mi NNW 23.0 mph 32.2 mph 0.00 in Snow Blowing Snow
8:22 PM 3.2 °F -20.7 °F -0.4 °F 85% 30.07 in 1.8 mi NNW 27.6 mph 36.8 mph 0.00 in   Overcast
8:56 PM 3.9 °F -19.4 °F -0.9 °F 80% 30.19 in 2.5 mi NNW 26.5 mph 35.7 mph 0.00 in Snow Blowing Snow
9:15 PM 3.2 °F -21.1 °F -2.2 °F 78% 30.09 in 4.0 mi North 28.8 mph 36.8 mph N/A Snow Blowing Snow
9:29 PM 1.4 °F -23.2 °F -2.2 °F 85% 30.09 in 2.5 mi North 27.6 mph 36.8 mph N/A Snow Blowing Snow
9:36 PM 1.4 °F -24.3 °F -4.0 °F 78% 30.10 in 4.0 mi North 31.1 mph 35.7 mph N/A Snow Blowing Snow
9:45 PM 1.4 °F -25.0 °F -4.0 °F 78% 30.10 in 1.8 mi NNW 33.4 mph 39.1 mph 0.00 in Snow Blowing Snow
9:56 PM -0.0 °F -25.9 °F -6.0 °F 76% 30.23 in 1.2 mi North 29.9 mph 38.0 mph 0.00 in Snow Blowing Snow
10:01 PM -0.4 °F -26.7 °F -7.6 °F 72% 30.11 in 3.0 mi North 31.1 mph 38.0 mph N/A Snow Blowing Snow
10:35 PM -2.2 °F -28.8 °F -7.6 °F 78% 30.13 in 2.0 mi NNW 29.9 mph 34.5 mph N/A   Haze
10:46 PM -2.2 °F -27.1 °F -9.4 °F 71% 30.14 in 3.0 mi North 25.3 mph - N/A   Haze
10:56 PM -4.0 °F -28.1 °F -9.9 °F 76% 30.27 in 6.0 mi NNW 21.9 mph 31.1 mph N/A   Haze
11:07 PM -5.8 °F -31.5 °F -11.2 °F 77% 30.15 in 9.0 mi NNW 24.2 mph - N/A   Mostly Cloudy
11:26 PM -5.8 °F -30.5 °F -11.2 °F 77% 30.15 in 10.0 mi NNW 21.9 mph - N/A   Scattered Clouds
11:50 PM -5.8 °F -32.0 °F -11.2 °F 77% 30.16 in 10.0 mi NNW 25.3 mph - N/A   Mostly Cloudy
11:51 PM -6.0 °F -32.2 °F -11.9 °F 75% 30.28 in 10.0 mi NNW 25.3 mph - N/A   Mostly Cloudy